星链-31336 (STARLINK-31336 )

导读 | 星芒AI

STARLINK-31336 是 SpaceX Starlink 卫星互联网项目中的一颗低轨卫星,属于第 6 批次部署的星链卫星之一。该卫星于 2023 年发射,运行在约 550 公里的轨道高度,旨在为全球用户提供高速、低延迟的互联网服务。作为星链星座的重要组成部分,STARLINK-31336 采用先进通信技术,支持宽带接入,并具备自动避障功能,以确保运行安全。该项目致力于改善偏远地区网络覆盖,推动全球数字连接。

基本信息
目录编号:
58944
目录名称:
STARLINK-31336
国际标识:
2024-027P
轨道中心:
EARTH
卫星名称:
星链-31336
卫星全名:
星链-31336 (STARLINK-31336 )
卫星状态:
在轨 (已飞行630 天)
发射日期:
2024-02-10 UTC
国别 :
美国 (US)
星等 :
--
轨道信息
数据来源 国际轨道数据
星历时间: 2025-11-01T00:29:09+0800
11小时前
查看轨道信息
半长轴: 6853.326km
偏心率: 0.0000942
轨道倾角: 53.159°
近地点辐角 69.271°
升交点赤经 189.093°
平近点角 290.839°
近地点: 474.545km
远地点: 475.837km
周期: 94.105分钟
每日圈数: 15.30209
详细信息
固有亮度:
5
最大亮度:
0.3
卫星平台:
Starlink v2.0 mini
覆盖范围:
全球
运营商:
太空探索技术公司
运营商所在国:
美国
制造商(研发单位):
太空探索技术公司
制造商所在国:
美国
使用方式:
暂无
卫星简介
星链(Starlink)计划是由太空探索技术公司(SpaceX)提出的一个巨型低轨卫星互联网星座项目,计划在2019年至2024年间在太空搭建由约1.2万颗卫星组成的“星链”网络,其中1584颗将部署在地球上空550千米处的近地轨道,并从2020年开始工作。该卫星仍在工作。
2D轨道图
3D轨道图
轨道高度分析图
轨道倾角分析图
轨道综合分析图
查看轨道综合分析图